Content
SEND FEEDBACK

Cameroon Flag

DOUALA, CAMEROON


Home > Africa > Cameroon
Elevation: 30 feet     Latitude: 04 00N     Longitude: 009 44E

WEATHER
 
SELECT A DAY
Number of Records: 135,821;   Date Range: 12/24/98 - 3/22/16
 
SHARE

PRINT THIS DATA

[ ← Previous Day ]
WEATHER ALMANAC - FEBRUARY 12, 2013
[ Next Day → ]
[ °C ]   °F
Weather ElementAverageHighLow
Temperature83.9 °F91.4 °F (2:00 pm)78.8 °F (4:00 am)
Dewpoint78 °F78.8 °F (1:00 am)77 °F (4:00 am)
Humidity82.5 %100 % (7:00 am)58 % (1:00 pm)
Barometer29.78 in29.83 in (1:00 am)29.74 in (2:00 pm)
Wind Speed4.9 mph11.5 mph (10:00 am)
Weather ElementAverage
Visibility5.6 mi
Wind DirectionSSE (159.2 °)

Weather ElementTotal
Precipitation---
Cooling Degree Days20.1 (Base 65)
Growing Degree Days35.1 (Base 50)
Averaged from 27 records on February 12, 2013
WEATHER CONDITIONS BREAKOUT
WIND DIRECTION BREAKOUT
WEATHER BY HOUR - FEBRUARY 12, 2013
[ °C ]   °F
Local TimeTemperatureDewpointHumidityBarometerVisibilityWind DirectionWind SpeedGust SpeedPrecipitationEventsConditions
1:00 AM82.0 °F78.0 °F85 %29.82 in6.0 miSW (220°)4.6 mphPartly Cloudy
1:00 AM82.4 °F78.8 °F89 %29.83 in6.2 miSW (220°)4.6 mphPartly Cloudy
2:00 AM82.4 °F78.8 °F89 %29.80 in6.2 miWest (260°)4.6 mphThunderstormThunderstorm
3:00 AM80.6 °F78.8 °F94 %29.77 in6.2 miCalmThunderstormThunderstorm
4:00 AM78.8 °F77.0 °F94 %29.77 in6.2 miCalmThunderstormThunderstorm
5:00 AM78.8 °F77.0 °F94 %29.77 in6.2 miCalmThunderstormThunderstorm
6:00 AM78.8 °F77.0 °F94 %29.77 in6.2 miCalmThunderstormThunderstorm
7:00 AM79.0 °F78.0 °F95 %29.79 in1.0 miCalmThunderstormThunderstorm
7:00 AM78.8 °F78.8 °F100 %29.80 in1.4 miCalmThunderstormScattered Clouds
8:00 AM80.6 °F78.8 °F94 %29.80 in2.5 miSW (220°)4.6 mphThunderstormPartly Cloudy
9:00 AM82.4 °F78.8 °F89 %29.80 in5.0 miNNW (340°)2.3 mphPartly Cloudy
10:00 AM84.2 °F78.8 °F84 %29.83 in6.2 miSouth (180°)11.5 mphPartly Cloudy
11:00 AM86.0 °F78.8 °F79 %29.80 in6.2 miSouth (180°)9.2 mphPartly Cloudy
12:00 PM87.8 °F77.0 °F70 %29.80 in6.2 miSW (220°)2.3 mphPartly Cloudy
1:00 PM90.0 °F77.0 °F58 %29.79 in6.0 miWest (260°)9.2 mphThunderstormThunderstorm
1:00 PM89.6 °F77.0 °F66 %29.77 in6.2 miWest (260°)9.2 mphPartly Cloudy
2:00 PM91.4 °F78.8 °F66 %29.74 in6.2 miWSW (240°)11.5 mphThunderstormThunderstorm
3:00 PM89.6 °F77.0 °F66 %29.74 in6.2 miSW (220°)11.5 mphPartly Cloudy
4:00 PM87.8 °F77.0 °F70 %29.74 in6.2 miSW (220°)9.2 mphPartly Cloudy
5:00 PM87.8 °F77.0 °F70 %29.74 in6.2 miSW (220°)9.2 mphMostly Cloudy
6:00 PM86.0 °F77.0 °F74 %29.74 in6.2 miSW (220°)6.9 mphMostly Cloudy
7:00 PM84.0 °F78.0 °F77 %29.76 in6.0 miSW (220°)6.9 mphPartly Cloudy
7:00 PM84.2 °F78.8 °F84 %29.74 in6.2 miSW (220°)6.9 mphMostly Cloudy
8:00 PM84.2 °F78.8 °F84 %29.77 in6.2 miSW (220°)6.9 mphMostly Cloudy
9:00 PM84.2 °F78.8 °F84 %29.80 in6.2 miCalmMostly Cloudy
10:00 PM82.4 °F78.8 °F89 %29.80 in6.2 miCalmPartly Cloudy
11:00 PM82.4 °F78.8 °F89 %29.83 in6.2 miCalmPartly Cloudy
Hourly data recorded from FKKD, located miles away from Douala, Cameroon




STORIES FROM OUR PARTNERS